User: anonymous   Login
Location: *
(46.1006°N, 1.8394°E)
Time: 23:02:53
(UTC+00:00)
Language:

COSMO-SKYMED 1 - Orbit

View from above orbital plane
View from above orbital plane
View from above satellite
View from above satellite

Ground track
Ground track

The orbit data is extracted from the following two-line orbital elements,

1 31598U 07023A   19316.55388014  .00000316  00000-0  46237-4 0  9998
2 31598  97.8871 137.8756 0001344  89.2029 270.9349 14.82157187672550
Epoch (UTC): 12 November 2019 13:17:35
Eccentricity: 0.0001344
inclination: 97.8871°
perigee height: 621 km
apogee height: 623 km
right ascension of ascending node: 137.8756°
argument of perigee: 89.2029°
revolutions per day: 14.82157187
mean anomaly at epoch: 270.9349°
orbit number at epoch: 67255

The dashed part of the orbit path shows where the satellite is in the earth's shadow,  

DLR